Wind_Speed
10 10 10 10 10 10 9 8 7 7 6 6 7 7 8 9 10 12 14 15 15 16 17 17 17 16 16 15 15 15 15 16 16 15 14 15 17 18 19 18 18 19 20 20 18 16 13 10 9 8 7 5 2 2 3 3 4 2 1 3 5 9 10 7 10 13 13 18 22 21 18 14 14 16 16 16 15 14 14 13 13 12 13 17 18 19 21 21
10 10 10 10 10 10 10 10 10 9 8 7 7 7 8 8 9 10 12 14 16 16 17 17 18 17 17 15 15 15 15 16 16 15 16 18 18 18 17 15 15 17 19 18 16 14 11 8 8 8 7 4 3 3 3 3 3 3 2 3 5 9 10 9 12 15 14 18 22 20 17 13 12 16 18 15 13 13 12 14 14 13 16 18 18 20 21 20
10 10 10 10 10 10 11 11 11 11 10 9 8 7 7 8 9 9 11 13 15 16 17 18 18 18 18 17 15 15 15 15 16 16 18 20 19 18 16 13 13 15 17 16 16 14 11 9 9 8 7 5 5 4 4 4 3 3 4 5 6 9 9 10 13 16 17 19 21 19 16 15 15 18 18 13 13 13 10 12 12 13 17 19 19 21 21 20
11 11 11 11 11 10 10 10 10 11 11 11 10 9 8 8 8 9 10 11 13 15 16 17 18 19 19 18 16 15 15 14 16 17 20 21 19 18 15 12 12 13 16 17 18 16 14 14 13 11 9 7 6 5 5 5 4 5 6 6 6 8 9 10 14 17 20 21 19 18 17 16 18 19 16 13 12 13 13 11 10 10 13 18 20 21 21 20
11 11 11 11 11 11 10 10 10 10 10 11 11 11 9 8 8 8 9 10 12 13 15 16 18 19 19 19 17 16 14 11 15 19 20 22 19 17 15 13 12 13 15 18 19 18 17 17 16 14 12 8 8 6 5 6 5 5 5 7 8 7 8 11 15 18 22 22 19 17 16 17 18 18 15 13 11 11 15 14 11 10 11 15 19 21 21 20
12 12 12 12 11 11 11 11 10 10 10 10 11 11 11 10 9 8 9 9 11 12 14 15 17 19 20 20 18 18 15 12 16 19 20 21 19 17 15 15 15 14 16 18 19 20 19 18 17 15 13 9 8 6 5 6 5 4 3 6 9 8 8 12 17 19 22 22 19 17 16 17 17 17 15 13 12 12 16 15 12 13 13 15 18 20 20 20
12 13 13 13 12 11 11 11 11 11 10 10 10 11 11 11 10 9 9 9 10 11 12 14 15 17 19 20 19 18 17 17 17 17 20 21 19 17 16 17 17 15 16 17 19 19 20 19 17 16 12 9 8 7 6 6 5 5 2 4 7 8 10 14 18 20 21 21 20 17 16 17 16 16 15 14 14 16 18 15 12 14 16 17 18 19 19 19
13 13 13 13 12 11 11 10 11 11 11 11 11 11 11 11 11 10 9 9 10 10 11 13 14 16 18 20 20 18 18 20 18 16 19 20 19 18 18 20 19 16 15 15 16 18 19 19 17 16 12 9 8 7 7 5 3 5 3 4 5 8 11 15 20 21 21 22 20 18 16 16 15 15 15 15 16 18 19 15 12 15 17 17 19 19 19 19
13 14 13 13 12 11 11 11 11 11 11 11 11 11 12 12 11 11 9 9 9 10 10 12 14 15 17 19 19 17 18 21 19 17 18 19 19 20 20 20 18 17 15 15 17 18 19 19 17 16 11 9 9 7 8 5 3 5 4 4 4 9 13 16 21 22 21 22 20 18 17 14 15 15 15 16 17 20 19 13 13 17 17 18 19 19 19 18
13 14 13 12 12 12 11 11 11 11 11 11 11 11 12 12 12 11 10 9 9 9 10 11 13 15 16 18 18 16 18 21 20 18 17 18 20 21 21 20 19 17 14 16 18 19 20 19 18 16 11 10 10 8 9 5 4 6 6 6 6 9 14 18 22 21 20 21 20 18 17 14 15 14 15 17 18 20 18 13 16 19 17 18 19 19 18 17
13 13 13 12 11 12 12 12 12 12 12 11 10 10 10 10 10 10 10 9 8 8 9 10 13 15 16 17 16 16 19 20 20 19 17 18 20 22 22 20 19 17 14 15 17 19 21 21 21 16 9 8 8 7 8 7 5 7 7 6 9 10 12 17 21 21 21 22 21 19 16 15 15 13 14 18 19 19 16 14 19 21 18 18 19 19 18 18
13 13 13 12 11 12 12 13 13 13 12 11 10 9 9 9 9 9 9 8 7 7 8 10 12 14 16 16 17 18 20 19 19 20 18 17 21 23 23 21 21 18 15 15 17 20 22 24 23 16 10 8 6 5 7 8 7 7 6 4 9 11 10 15 19 19 21 22 22 20 17 16 15 13 16 18 18 19 15 15 21 21 19 19 19 19 18 18
14 13 12 11 11 11 13 13 13 13 12 11 10 9 9 8 8 8 7 7 7 7 8 9 11 14 15 16 16 18 18 18 19 20 19 18 20 24 24 23 22 21 18 17 18 20 22 25 24 16 14 11 7 7 7 8 8 6 7 5 9 12 9 13 18 19 20 21 23 20 16 16 16 16 18 19 18 19 17 15 20 21 20 19 19 20 18 18
14 14 12 11 11 11 13 13 14 13 12 11 10 9 8 8 8 8 7 7 6 6 7 9 10 13 15 15 14 15 17 18 18 20 19 18 20 24 25 24 24 23 21 21 21 21 22 26 24 17 16 14 9 9 8 8 8 6 8 7 10 12 10 13 16 18 19 20 23 20 17 17 17 19 20 19 18 19 19 17 20 21 20 20 20 19 18 18
15 14 12 12 11 12 12 14 14 14 12 11 9 9 8 7 7 7 7 7 6 6 7 8 9 11 13 13 13 14 16 17 17 19 18 16 18 22 24 25 25 25 23 22 24 24 24 25 22 15 14 15 13 9 8 8 7 8 9 9 11 12 12 16 17 19 19 19 22 20 18 18 18 20 21 19 18 19 19 19 21 21 20 20 20 19 18 17
15 14 12 12 12 12 12 14 14 13 12 10 9 9 8 7 7 6 6 6 6 6 6 6 8 9 10 11 12 13 15 17 18 19 18 17 18 20 23 24 25 25 23 22 23 25 26 25 22 16 13 13 11 8 8 8 7 9 8 8 11 9 10 18 19 19 20 18 22 20 16 18 19 21 22 20 19 19 19 20 21 21 20 20 20 19 19 18
14 14 12 12 12 12 12 13 14 13 11 9 8 8 8 7 6 6 6 6 5 5 4 4 6 8 8 8 10 13 16 18 19 19 18 17 18 20 22 23 24 24 21 20 22 24 27 26 23 18 15 14 10 10 11 10 10 10 7 6 10 8 10 18 19 19 20 17 22 22 13 16 20 23 23 21 20 19 20 21 22 22 21 21 20 19 19 19
14 13 12 13 13 12 13 13 13 11 9 9 8 8 8 8 7 7 7 7 4 2 3 2 4 5 7 8 10 14 17 18 18 18 18 17 17 19 21 22 22 23 21 19 21 24 26 25 21 14 13 15 12 14 13 9 9 9 9 8 10 11 10 15 18 19 19 17 21 22 14 14 21 23 22 21 20 20 21 22 23 22 21 21 21 19 19 19
14 12 12 13 13 13 13 12 11 9 9 9 9 8 8 7 8 9 9 8 3 0 2 1 6 6 6 10 12 14 17 18 18 18 18 17 16 17 20 21 21 21 20 19 21 25 26 22 19 14 15 16 14 15 11 4 5 7 9 6 7 12 10 10 15 18 19 17 20 23 17 15 19 23 23 21 21 21 21 23 23 22 22 22 21 20 19 19
13 12 11 12 13 13 12 11 9 9 9 9 8 8 8 8 9 10 9 7 3 3 3 3 7 9 8 9 12 14 16 17 17 18 18 17 16 16 18 20 20 20 18 18 20 25 26 20 18 18 16 15 14 14 9 3 2 5 7 5 4 10 11 9 11 18 20 17 18 19 15 14 16 22 24 22 22 23 23 24 24 24 23 23 22 20 20 19
12 11 11 12 13 12 11 9 9 10 10 9 9 9 9 9 8 8 7 6 3 3 4 4 7 9 10 10 13 15 15 15 15 16 18 18 17 15 16 18 20 20 18 16 18 25 25 19 19 19 13 11 13 12 9 5 3 5 6 6 5 6 9 7 7 17 23 19 17 17 14 13 15 20 25 24 22 23 24 24 25 25 24 23 22 21 21 20
12 11 10 12 13 11 9 8 9 10 9 9 10 10 9 8 7 7 6 6 3 3 5 6 8 9 9 11 13 16 15 14 14 15 17 19 18 15 15 18 18 18 18 17 18 24 24 20 20 17 13 14 15 12 9 5 4 7 7 6 6 6 6 5 5 15 23 20 18 17 15 14 15 18 24 25 23 22 23 24 24 25 24 24 23 22 21 21
11 10 10 11 13 10 7 8 9 9 10 10 10 10 9 8 7 7 8 7 4 5 8 8 9 10 10 12 14 15 13 11 13 13 14 17 17 17 17 18 18 17 20 21 20 23 22 20 19 16 16 16 14 13 10 6 6 7 8 6 5 7 4 5 9 15 21 21 17 15 14 14 15 17 22 26 24 22 22 23 24 24 24 22 22 22 22 22
10 10 10 11 10 7 6 7 8 9 10 10 10 10 8 8 7 9 11 10 6 6 9 8 8 10 10 13 15 14 10 9 10 10 12 15 15 18 18 17 17 17 21 22 21 22 18 16 17 16 18 16 11 12 10 8 8 7 8 6 3 5 5 5 10 15 18 19 16 13 12 13 14 14 18 24 25 23 23 23 24 25 24 22 21 22 22 22
8 9 10 10 8 6 7 8 10 10 10 9 10 9 8 7 7 10 12 10 8 7 7 7 7 7 8 12 16 13 9 8 8 7 11 14 14 16 16 16 17 16 21 22 21 22 16 14 17 16 17 16 10 11 12 10 9 7 8 5 2 4 6 5 9 12 14 14 14 14 9 8 13 13 14 21 26 26 25 24 24 25 25 24 23 24 24 22
7 8 9 8 5 6 9 11 10 10 9 9 10 9 7 7 8 11 10 8 9 7 4 6 6 5 6 11 15 12 10 10 8 6 9 13 14 14 14 17 16 14 20 21 19 20 14 13 18 16 15 15 12 11 12 11 8 6 7 4 2 5 7 7 7 9 10 9 13 17 12 5 10 15 14 17 23 26 27 25 24 25 25 25 25 25 26 24
6 7 7 6 4 9 11 10 9 9 10 10 9 8 7 7 8 9 7 6 8 7 4 4 5 6 6 11 15 11 10 12 10 7 8 10 11 13 14 16 15 13 18 19 16 17 13 11 17 17 14 14 14 12 12 13 8 4 5 4 3 6 8 8 7 8 9 7 8 16 18 9 7 15 18 18 20 22 26 27 25 25 26 26 27 26 26 25
5 6 6 4 9 12 10 9 9 9 9 9 8 7 6 6 6 5 1 3 7 6 4 4 6 8 9 12 13 7 7 9 9 9 9 8 10 12 11 14 14 13 18 20 14 13 13 13 15 17 16 15 15 11 11 14 9 4 4 3 4 6 8 9 7 7 7 6 6 11 16 10 6 13 19 20 20 22 25 27 26 26 27 27 28 27 25 25
4 5 4 7 12 11 9 8 8 9 8 8 8 7 6 6 6 3 1 3 6 4 3 6 6 8 11 11 8 4 7 7 6 11 10 8 11 13 9 11 13 13 17 20 13 7 12 16 15 15 17 16 14 11 11 13 9 5 4 4 5 6 6 7 6 4 4 5 6 11 14 11 5 11 22 24 24 24 25 26 26 26 27 28 28 28 26 25
3 4 4 10 12 9 8 8 8 7 7 7 8 7 6 7 4 1 1 5 5 3 4 5 4 8 10 9 6 7 10 7 5 12 12 8 9 10 10 12 11 10 14 18 15 5 8 16 18 17 16 14 11 11 14 14 9 6 6 6 7 7 6 6 4 4 4 5 5 10 13 12 6 9 21 27 27 25 23 25 26 26 27 28 28 28 27 26
2 2 7 12 10 7 7 8 7 6 6 6 7 7 8 6 1 2 5 6 3 4 4 4 5 8 8 8 8 10 10 6 7 13 12 9 9 9 10 12 11 11 11 15 17 9 6 12 17 18 17 14 9 9 15 16 11 9 9 9 9 8 6 6 5 5 5 3 4 8 10 11 7 6 16 23 26 25 22 24 27 26 27 28 28 27 27 27
2 2 9 13 9 7 7 7 6 5 6 5 7 8 6 4 4 6 6 3 1 3 2 3 5 6 7 8 7 9 8 6 9 12 12 11 11 10 11 11 13 13 11 14 16 13 12 12 13 16 18 19 13 10 13 15 15 14 12 13 12 8 6 7 6 5 5 2 5 7 9 10 9 8 12 16 22 27 23 22 26 25 26 28 28 28 28 28
0 4 11 13 9 7 6 6 5 5 6 6 8 8 3 2 6 7 4 2 0 3 3 4 4 4 8 8 7 8 6 5 9 11 12 12 10 10 9 8 12 11 8 13 15 12 13 14 15 16 17 20 18 13 14 15 17 18 16 17 15 8 6 7 5 5 5 4 7 8 8 7 6 7 9 9 17 27 23 20 26 27 25 26 27 28 28 28
2 7 13 12 9 7 6 5 5 5 5 6 7 5 3 4 7 6 5 5 1 4 5 6 6 5 7 6 6 8 6 5 8 10 12 12 11 11 9 8 12 9 4 10 13 11 11 12 18 21 17 18 21 17 13 14 18 19 17 17 17 11 7 6 5 5 3 5 7 8 6 3 3 6 8 9 15 25 24 20 25 29 27 26 27 28 28 28
4 9 13 11 8 7 5 5 6 6 6 6 4 3 3 6 6 5 5 5 3 3 4 7 7 7 7 5 6 7 5 5 9 11 11 11 10 11 10 8 10 9 5 8 10 9 10 8 11 19 17 15 21 19 12 12 17 18 17 17 18 15 10 6 5 5 2 5 5 7 5 2 3 5 9 12 14 21 23 22 25 28 30 30 30 29 28 28
7 10 12 10 8 6 5 5 5 5 6 4 3 3 6 6 6 6 5 4 2 3 5 7 7 7 8 8 6 5 5 7 11 11 9 8 8 7 8 7 8 9 8 7 6 7 10 8 7 15 17 15 19 19 17 16 15 16 19 21 17 13 12 9 6 4 4 3 6 8 6 4 5 5 9 14 15 17 19 22 27 29 32 34 32 30 29 29
8 10 10 10 8 6 5 5 4 4 4 3 2 4 6 6 6 7 6 4 2 4 5 6 7 7 7 9 8 5 6 9 11 10 9 8 7 6 6 7 8 10 9 7 5 4 7 7 8 14 18 18 17 17 19 19 15 14 19 21 15 10 11 11 6 4 7 5 4 7 8 7 7 6 10 14 16 17 16 18 26 32 34 36 35 32 30 30
9 10 9 9 8 6 6 5 5 5 5 4 3 5 6 5 6 6 7 5 2 4 3 4 6 7 6 8 9 7 8 9 9 9 9 7 5 7 6 5 7 9 11 10 6 4 6 6 7 12 16 18 18 17 19 22 19 15 15 18 16 14 13 12 8 5 6 6 4 7 8 8 9 8 9 12 13 14 16 16 23 33 37 37 36 34 32 31
9 8 7 9 9 6 6 6 7 6 4 3 3 5 6 6 6 7 8 7 4 2 3 3 6 7 6 6 8 7 6 7 8 8 8 6 5 7 6 4 6 8 10 11 7 4 6 8 7 11 13 16 19 20 21 21 21 17 13 15 18 16 14 14 12 8 5 6 4 5 6 6 9 9 9 11 10 9 13 16 22 32 37 36 35 35 34 32
9 7 7 11 9 7 6 6 6 4 2 3 4 4 6 5 6 7 8 8 7 3 1 3 6 7 6 5 6 6 4 5 7 6 5 7 7 6 5 4 6 7 7 10 9 6 7 9 7 11 13 17 20 23 21 20 21 21 18 18 19 18 15 13 12 11 7 6 4 4 4 4 5 7 9 12 10 8 9 14 20 30 36 36 34 35 35 33
9 6 8 11 9 8 7 5 5 4 3 3 5 5 5 5 4 6 7 8 7 5 4 4 5 6 6 6 5 6 6 6 7 5 5 8 7 5 4 3 4 7 7 7 7 6 7 9 8 8 14 18 20 22 20 17 18 21 22 21 20 19 17 13 10 11 11 8 6 6 3 4 3 5 8 12 10 6 8 11 17 26 35 38 36 35 35 34
7 4 8 11 9 9 7 4 4 5 3 3 5 5 5 5 4 4 5 6 6 5 5 4 5 5 5 6 6 6 7 6 6 5 5 8 8 6 6 3 4 6 6 5 6 6 6 8 9 8 11 13 14 18 20 18 17 19 22 22 20 20 20 17 12 10 11 11 9 7 5 3 3 2 5 11 10 7 8 10 14 22 32 39 40 37 35 33
7 6 9 10 8 9 7 4 5 4 3 5 6 6 6 6 4 4 5 4 4 4 4 4 4 5 5 6 5 6 8 7 6 6 6 8 8 6 6 4 3 4 3 3 5 5 5 7 9 10 8 7 8 13 19 21 19 18 21 22 21 22 22 21 16 10 11 12 11 10 6 4 4 3 4 7 9 8 8 10 13 17 26 36 40 39 35 33
11 8 8 9 8 8 6 4 4 3 3 6 5 4 6 5 4 4 5 4 4 4 4 4 4 5 5 5 5 5 7 6 6 7 7 7 6 6 5 3 2 2 2 2 4 5 5 5 9 11 9 9 10 11 16 21 22 20 20 21 21 22 22 22 18 11 11 13 12 11 6 2 2 4 4 6 8 10 9 10 14 16 20 30 37 39 36 32
12 8 8 9 9 7 6 6 5 4 4 5 5 3 3 3 2 2 3 4 3 4 4 3 4 4 4 4 4 4 5 4 6 8 7 5 5 7 5 3 2 1 1 2 2 4 5 5 8 10 8 7 10 11 12 18 22 21 18 17 19 20 20 20 18 15 13 12 12 12 8 5 8 10 9 9 8 11 12 12 14 16 19 24 31 37 39 35
10 7 7 8 8 6 7 8 7 5 4 5 4 3 3 2 2 1 1 3 3 3 4 3 4 4 2 3 3 2 2 3 5 7 6 4 4 5 4 3 3 2 2 3 3 3 3 3 6 8 7 4 3 7 11 14 17 17 16 17 18 20 20 18 19 19 16 13 14 15 12 9 12 12 10 9 7 9 13 14 15 17 18 19 23 29 35 38
10 9 8 8 7 6 6 7 8 6 5 5 4 3 3 2 2 1 1 2 2 2 2 2 3 2 1 2 3 2 2 3 4 6 6 5 3 3 3 2 2 2 3 2 2 2 2 3 3 3 4 4 2 5 13 15 13 11 12 15 17 18 19 20 21 20 16 14 14 14 13 12 12 11 9 8 8 7 11 15 15 16 18 18 19 21 26 31
12 11 11 10 8 7 7 7 8 7 6 4 4 3 3 2 2 2 2 2 3 2 1 1 1 2 2 2 2 2 3 4 5 5 5 4 3 2 1 1 2 2 2 3 3 4 4 4 2 2 1 1 3 6 11 13 11 8 7 9 13 16 17 19 20 16 13 14 13 10 10 10 10 11 10 10 10 8 9 14 16 17 18 18 17 18 21 24
14 11 11 12 9 7 8 8 7 7 6 4 3 3 3 3 2 2 2 3 4 1 2 2 1 2 3 2 2 4 4 4 4 5 4 3 2 2 1 1 2 3 2 3 6 5 6 6 4 4 4 4 3 5 8 9 8 7 5 4 8 11 15 16 16 14 14 15 13 10 7 7 9 10 10 9 9 8 8 14 17 19 18 17 15 16 18 20
15 12 11 11 11 9 7 7 8 8 7 5 3 3 4 4 3 1 1 3 3 1 3 4 3 3 4 3 3 4 4 4 4 5 5 3 2 2 1 1 2 4 5 2 7 7 6 6 5 6 4 5 6 5 7 8 8 8 6 5 8 7 10 13 13 14 15 15 13 12 11 10 12 12 10 9 9 8 9 14 17 18 18 16 16 16 17 18
15 15 12 10 11 11 8 7 8 8 7 6 5 4 4 5 3 1 2 4 4 3 4 5 5 4 5 4 3 4 4 5 5 6 6 4 2 3 2 1 2 3 5 3 7 8 7 7 6 6 6 4 6 4 5 7 7 6 4 7 11 7 5 8 10 13 13 9 10 12 10 10 13 15 13 12 12 10 10 13 17 19 18 17 17 16 16 17
14 15 14 12 11 11 10 9 9 9 7 7 6 5 5 5 3 1 2 4 5 3 3 4 4 3 3 2 2 3 3 4 5 5 5 4 3 2 2 3 3 3 3 3 5 6 9 9 7 8 10 5 3 1 3 6 8 4 3 1 7 7 7 7 6 11 12 8 7 9 9 10 13 14 14 15 15 12 11 14 18 19 19 19 18 15 14 16
Wind_Direction
347 345 343 341 339 336 332 328 322 311 297 282 271 265 260 253 245 241 240 238 236 235 235 236 237 238 237 234 232 229 226 223 220 216 214 215 215 216 219 218 214 211 212 213 213 215 214 209 215 217 214 214 212 231 246 262 258 252 186 111 148 169 163 159 163 164 176 171 159 159 159 160 165 159 156 154 154 162 167 162 155 153 153 155 164 169 165 161
345 342 339 336 334 331 328 326 323 318 312 301 288 276 267 261 254 246 243 241 239 236 234 234 234 236 237 235 232 229 227 224 221 215 215 218 217 218 221 219 214 212 213 212 211 214 211 205 212 212 209 206 193 212 238 252 244 228 212 165 165 185 177 169 170 165 169 172 162 158 158 157 163 157 147 141 142 150 160 158 153 153 154 154 160 167 168 161
341 338 335 332 330 327 325 322 320 318 315 310 302 292 281 270 262 255 248 244 243 240 236 233 233 233 233 234 232 230 227 224 222 215 215 219 217 218 219 217 214 211 211 207 206 206 196 189 196 203 201 198 206 214 226 234 235 223 194 165 177 195 184 175 177 169 168 171 164 158 156 154 158 155 144 129 125 134 150 154 151 155 157 156 161 169 167 157
338 336 335 333 331 327 324 320 317 314 311 309 306 302 294 283 272 262 254 247 245 243 240 235 233 232 231 231 229 229 225 225 225 215 216 219 215 216 213 210 209 205 205 203 202 197 188 186 184 189 190 196 216 214 215 219 215 213 193 179 191 193 184 175 171 169 168 168 167 162 158 157 159 157 149 133 124 134 142 142 144 148 158 160 161 168 164 154
338 336 336 335 333 330 326 320 315 311 308 305 304 303 300 292 281 271 261 253 247 244 243 238 235 233 231 229 226 225 219 222 227 215 216 220 214 213 207 201 203 200 201 203 202 192 186 188 184 184 182 191 217 216 223 224 207 212 211 206 199 183 182 175 166 167 167 166 168 165 159 158 158 157 154 140 130 142 144 140 143 141 155 161 161 165 160 151
338 337 337 336 334 332 327 322 317 313 308 303 302 300 300 295 287 279 268 258 251 246 243 241 238 234 232 229 224 222 210 210 221 214 216 219 213 210 202 196 198 197 199 202 202 192 185 187 186 184 181 190 211 209 216 221 202 198 211 210 197 180 179 174 166 166 166 165 167 165 157 156 157 157 158 150 143 149 146 140 144 148 155 161 161 163 157 152
338 338 339 337 336 333 328 323 319 316 311 305 301 297 296 295 291 284 274 265 255 247 243 240 239 236 234 230 225 221 212 213 218 214 215 216 212 207 199 197 196 196 201 201 200 193 185 186 186 180 178 193 205 200 198 202 193 180 195 226 202 183 180 175 167 167 167 167 167 161 155 155 156 158 159 157 152 151 149 143 143 150 155 160 163 163 156 153
340 339 339 338 335 333 330 326 321 317 313 307 303 298 294 293 291 288 281 272 260 250 243 237 237 237 235 232 228 223 217 216 216 213 215 214 210 204 200 199 195 195 198 198 198 194 186 186 184 176 178 197 197 195 186 178 207 193 195 239 207 188 188 176 169 169 169 167 165 160 157 156 155 157 157 159 158 156 153 145 143 150 154 159 163 162 157 156
341 341 340 338 336 334 331 329 325 319 315 310 305 300 295 292 290 290 286 279 269 257 245 236 233 235 236 234 231 228 223 217 213 212 213 211 205 201 201 199 197 195 192 193 193 190 188 183 180 177 184 196 188 187 175 163 239 215 190 210 185 179 187 179 171 171 169 166 165 163 164 161 155 155 157 160 161 158 155 146 146 151 154 158 161 162 159 159
343 341 340 339 337 334 332 330 328 324 321 315 307 302 298 294 291 291 289 285 276 265 250 237 231 230 235 234 231 231 225 217 212 210 210 208 201 199 200 197 197 195 190 193 189 185 184 179 181 184 187 193 183 180 175 169 231 206 185 193 178 167 176 178 173 171 171 168 168 167 167 164 156 156 160 162 161 157 153 148 150 152 155 158 160 161 161 162
344 342 339 339 338 334 332 332 331 330 328 322 315 307 301 298 294 291 289 285 278 269 254 239 231 226 231 233 229 229 223 217 214 210 209 206 197 196 197 194 193 192 190 192 188 184 180 178 181 180 180 189 184 188 191 194 207 192 182 186 188 181 172 174 174 173 173 172 172 170 169 164 156 159 166 163 160 157 148 146 152 152 156 160 160 162 164 164
345 342 339 339 338 335 333 334 334 334 331 326 321 314 307 302 297 291 287 284 276 267 254 240 231 225 227 231 229 227 222 218 215 210 208 203 196 196 193 190 189 186 189 193 190 184 180 179 178 171 175 182 188 209 211 200 186 180 185 180 188 187 172 173 179 177 174 175 174 169 166 164 162 165 167 163 162 160 150 147 154 154 157 162 162 164 166 167
344 341 338 337 338 336 335 335 335 334 332 328 322 318 314 308 305 299 289 283 274 262 251 239 231 225 226 232 231 227 222 217 214 210 208 200 195 196 190 187 186 183 186 191 191 186 181 180 177 178 182 175 184 199 195 187 174 171 179 178 183 181 174 179 182 179 176 179 176 169 165 167 169 170 165 165 168 165 157 154 157 158 160 164 165 166 168 170
342 339 337 336 338 338 336 334 335 334 331 327 322 318 316 315 312 306 298 289 277 259 248 238 231 226 227 233 231 224 219 214 213 210 206 199 195 196 190 185 185 184 186 189 188 182 182 182 178 182 185 178 184 185 175 173 171 173 171 173 181 176 179 186 185 179 177 182 179 171 169 170 170 170 166 166 171 168 162 160 162 161 163 166 168 168 170 172
340 338 336 336 338 339 335 333 333 332 329 326 321 319 318 322 319 311 305 294 281 264 249 238 231 228 231 234 226 219 215 208 208 207 202 196 194 194 189 185 186 187 188 190 184 175 179 182 176 179 188 185 181 171 173 176 179 191 175 168 181 183 186 185 185 185 184 187 180 170 169 170 169 170 168 165 168 170 165 164 165 164 166 169 171 171 171 174
339 336 334 336 338 338 334 332 332 330 329 326 323 325 323 325 324 317 312 296 285 275 257 241 231 225 228 232 223 215 208 201 202 204 200 193 188 188 188 187 188 189 192 191 182 174 175 177 177 181 185 185 180 174 185 188 192 202 192 168 174 189 187 177 181 190 193 189 180 175 164 162 169 172 170 167 168 170 168 167 167 166 169 172 173 174 173 176
338 334 333 336 337 337 334 331 330 329 330 331 334 337 333 331 327 323 319 307 294 280 268 245 225 215 216 219 211 205 201 196 197 199 199 194 187 184 184 188 190 191 194 190 183 177 174 177 183 186 183 181 187 193 194 200 202 203 215 193 175 189 188 177 182 192 194 192 186 183 164 156 171 173 172 173 172 172 170 170 171 170 171 175 176 176 177 176
337 333 332 335 336 335 333 331 330 332 339 344 346 348 346 339 330 329 324 315 309 305 313 250 193 186 206 203 194 198 196 191 192 194 195 194 189 183 182 187 192 193 194 189 185 180 176 178 182 188 196 194 195 196 192 208 216 204 209 200 174 179 185 183 189 193 194 192 189 187 177 168 174 173 174 178 176 176 175 172 175 175 174 178 180 179 179 176
335 333 332 334 336 334 332 333 333 338 348 350 351 356 359 355 350 344 328 315 313 308 340 216 171 164 192 201 196 194 190 186 188 191 194 193 187 184 184 184 189 195 194 188 186 181 177 179 182 192 206 203 199 195 190 216 229 205 207 207 173 174 182 190 193 194 195 193 193 193 187 175 175 177 178 181 180 177 178 177 177 178 179 181 183 181 179 176
334 334 334 334 335 332 332 336 338 343 354 358 6 19 19 21 15 351 328 324 326 191 199 191 180 177 181 195 195 184 181 185 187 191 194 193 188 185 186 185 183 188 190 188 187 183 179 183 193 196 200 203 201 198 201 246 226 194 204 220 201 176 172 188 200 196 195 197 198 198 190 174 174 179 179 180 181 179 181 182 179 181 182 184 185 182 179 178
333 335 336 334 333 331 332 340 346 352 6 21 35 47 40 34 24 354 346 357 355 187 185 175 173 179 179 185 184 171 169 179 185 194 196 193 189 188 191 187 182 183 183 182 187 186 185 195 202 197 198 199 194 199 213 235 227 202 201 209 217 182 154 166 207 198 193 197 199 197 189 176 175 180 179 180 180 179 183 185 183 184 184 186 187 182 179 180
333 336 339 336 333 332 337 349 358 4 27 46 52 57 47 40 34 17 33 39 30 130 142 148 154 167 175 176 174 164 162 175 184 190 197 197 191 191 196 190 183 183 179 176 183 186 191 204 201 196 206 198 187 193 202 213 214 201 204 210 208 195 158 142 166 183 184 188 197 197 188 181 181 182 181 181 180 179 183 187 186 187 187 188 187 183 182 184
333 337 342 339 335 341 353 0 11 28 50 58 56 52 42 44 46 47 71 72 66 110 119 132 146 152 162 168 167 160 156 177 190 188 195 197 194 197 198 187 183 184 182 180 183 185 194 206 201 201 210 199 190 193 189 194 202 197 208 219 205 194 179 137 147 170 179 183 195 197 185 184 188 185 181 181 182 181 183 187 189 191 190 190 188 185 187 189
333 337 346 344 341 359 19 26 47 63 64 59 54 45 41 48 58 76 89 87 84 107 116 121 136 146 161 171 163 155 158 182 196 197 189 182 191 201 195 184 184 187 187 187 188 189 195 202 197 203 204 191 192 198 189 194 201 202 213 227 224 193 189 159 158 173 181 184 195 195 184 187 190 184 179 181 185 188 187 187 190 192 191 191 190 188 191 195
334 339 349 352 355 24 56 72 76 75 63 54 48 42 48 59 77 96 96 100 98 90 100 104 114 135 156 168 162 157 166 177 182 200 188 172 179 190 186 182 185 191 192 189 193 196 201 208 197 198 198 190 195 201 195 200 207 208 209 223 241 186 199 193 166 170 180 189 199 197 192 197 195 190 183 184 189 193 194 192 191 193 192 191 190 190 193 196
335 341 354 3 16 64 89 90 81 71 56 48 44 42 61 78 96 105 101 119 112 81 81 93 101 130 143 161 169 166 166 171 172 182 178 166 168 175 181 183 181 193 193 187 197 201 207 222 205 195 197 196 199 202 200 201 210 207 190 204 218 181 197 200 172 168 180 200 207 201 201 202 198 200 197 193 193 195 197 196 193 194 195 193 189 190 194 196
336 346 3 19 73 101 100 90 74 64 48 41 43 49 80 101 112 113 110 128 109 77 76 89 97 132 139 156 167 169 173 177 167 158 163 164 166 167 175 181 178 185 185 182 197 202 199 206 199 194 197 203 205 207 206 201 207 211 181 191 184 171 186 194 190 183 185 202 200 198 203 204 216 213 204 199 196 194 197 198 194 195 198 196 189 189 194 196
337 356 14 64 113 111 98 85 69 57 43 39 46 64 98 124 123 120 156 120 93 62 59 89 100 119 124 139 153 168 190 181 166 161 159 153 157 156 167 186 185 184 182 180 188 201 202 198 195 196 198 206 207 208 211 204 213 241 200 180 158 168 186 187 192 188 186 205 186 185 198 200 238 224 203 198 197 195 198 198 196 196 198 196 191 189 193 196
340 7 41 118 124 110 93 82 66 53 45 44 53 71 107 132 116 101 299 86 84 55 76 92 100 119 122 126 134 158 170 165 165 166 152 138 153 158 171 186 182 185 189 191 195 208 207 200 197 198 203 211 211 216 218 206 219 240 195 154 154 172 182 178 192 191 200 243 204 181 192 193 216 213 198 196 196 196 199 199 197 198 198 197 193 190 192 196
342 17 103 137 129 107 88 79 65 53 47 50 59 73 103 124 126 134 102 87 79 86 94 80 102 138 137 133 125 137 153 150 151 159 153 146 155 161 173 171 168 181 191 199 208 209 197 203 204 201 203 211 214 222 219 209 217 218 182 159 155 159 164 172 190 184 202 258 206 182 198 204 203 196 198 203 204 200 197 197 198 198 197 197 195 192 192 195
344 43 135 146 134 109 89 75 62 53 52 55 69 79 90 103 94 5 80 90 88 104 91 77 122 147 153 153 137 134 148 149 151 160 160 160 158 158 170 169 169 179 186 202 211 211 204 208 210 210 209 211 216 227 223 216 213 203 186 175 166 159 167 180 181 188 220 234 172 179 197 209 222 204 203 214 215 208 201 198 199 199 197 197 196 195 196 195
344 106 147 151 138 114 93 77 62 64 70 70 85 88 83 93 58 42 70 96 130 122 110 123 137 146 156 156 139 138 150 147 157 170 169 168 167 164 173 178 180 185 192 203 208 214 218 214 212 217 219 216 216 223 222 215 209 206 200 194 190 178 182 197 188 197 229 183 136 161 177 200 236 235 218 220 216 210 207 202 202 201 198 198 197 197 199 196
14 136 152 153 138 116 99 88 83 88 89 86 90 84 54 60 60 51 52 26 340 176 172 158 147 144 157 160 146 148 157 147 164 177 175 177 177 172 179 184 183 194 210 199 195 203 210 215 218 218 222 218 210 208 208 204 204 207 202 203 209 200 194 209 201 203 219 174 141 155 171 195 226 225 223 219 204 203 203 201 203 201 199 199 198 198 199 194
146 150 155 153 138 119 106 106 105 101 100 90 82 64 14 56 60 49 41 28 44 171 165 160 154 150 162 163 146 151 154 143 165 174 172 182 186 179 182 180 182 198 219 191 197 209 203 209 216 213 216 215 207 208 209 201 203 206 203 209 217 220 219 213 217 224 189 114 132 161 181 199 179 190 204 194 189 193 196 200 203 200 197 196 194 195 196 192
157 159 157 151 141 128 121 124 115 108 105 88 61 17 33 59 53 36 33 33 58 133 145 153 155 158 160 150 143 153 152 138 154 165 172 184 188 182 180 178 181 191 203 193 197 213 219 226 219 209 208 208 204 206 208 199 203 206 205 212 219 222 226 223 243 252 148 105 148 188 200 192 176 194 192 184 188 196 202 208 209 202 195 192 191 192 192 188
165 162 159 155 148 141 141 137 127 121 107 77 16 36 57 52 39 30 25 30 71 137 151 155 164 175 165 149 149 159 157 146 149 158 165 170 174 176 179 180 182 188 208 220 198 199 223 231 203 197 201 205 204 204 204 201 202 205 207 213 220 224 230 233 242 257 235 202 182 193 208 192 188 215 203 195 197 202 210 215 213 205 195 192 192 191 190 186
173 168 163 161 157 155 156 150 143 132 100 58 25 83 78 56 42 39 34 35 88 152 170 177 175 179 170 157 154 153 152 150 152 159 157 155 164 172 182 195 200 199 204 219 221 218 236 224 185 194 204 204 202 203 207 209 209 208 210 211 214 222 234 241 240 230 235 233 175 187 214 201 186 212 218 209 207 206 211 214 209 203 196 193 193 191 191 190
180 174 170 170 169 164 161 155 143 122 95 84 96 100 90 64 46 44 40 39 101 165 208 208 168 170 182 164 148 149 160 159 161 164 156 151 160 162 172 197 205 208 204 203 214 228 245 238 182 187 203 200 195 200 206 212 216 219 218 211 209 216 219 220 229 235 227 232 197 178 206 214 202 211 218 213 214 213 213 211 205 200 196 193 192 192 192 193
181 174 184 184 176 170 169 159 137 115 105 117 107 99 91 67 46 46 42 44 83 154 233 206 165 170 182 165 146 153 175 172 166 167 158 145 141 147 154 174 192 213 207 198 208 214 228 243 188 169 193 196 192 202 205 204 208 216 223 214 211 220 224 218 224 234 232 240 224 172 191 214 210 215 219 219 231 231 217 211 204 200 195 192 193 194 194 194
175 168 203 194 177 174 170 151 128 108 117 125 105 106 102 74 45 40 38 49 67 76 128 169 169 162 156 160 155 154 166 163 160 168 157 140 136 139 138 141 179 208 196 181 198 207 214 241 214 160 179 196 197 203 205 200 202 208 214 215 211 216 225 231 231 228 230 243 243 223 210 182 197 228 223 219 233 235 214 209 204 200 195 192 194 197 197 196
170 163 207 194 178 176 159 135 137 135 123 114 106 111 109 86 57 33 32 47 56 61 78 114 152 147 140 155 154 147 149 148 154 157 148 148 144 136 131 117 153 180 178 170 193 207 204 230 233 176 183 204 207 205 206 207 207 208 212 216 215 213 216 224 226 218 224 237 247 257 240 166 199 257 229 220 225 215 200 200 198 198 196 194 194 198 200 199
170 183 208 188 176 174 150 131 163 150 126 132 121 115 107 88 70 40 34 42 42 51 70 90 126 125 123 137 138 140 138 136 147 145 138 151 152 146 144 119 109 142 159 180 199 207 200 216 236 218 198 203 203 200 205 209 208 213 219 219 218 218 217 220 221 212 217 231 237 247 246 206 222 266 227 222 219 200 193 190 189 194 196 196 196 198 201 200
179 203 204 187 178 173 158 162 179 153 139 149 130 114 108 90 73 52 38 40 46 54 63 75 110 126 130 127 125 137 140 138 143 140 139 146 150 158 154 131 92 100 113 190 209 213 203 207 225 226 213 203 199 204 210 211 210 217 223 221 221 222 220 224 230 226 219 221 225 231 226 193 212 244 242 228 220 212 203 187 183 188 194 197 198 201 203 201
192 200 199 190 184 176 176 192 182 161 153 149 135 123 113 95 89 73 43 47 72 71 66 75 101 133 149 136 130 146 147 146 148 151 156 151 160 185 179 152 131 91 91 205 218 215 207 216 225 217 202 193 196 205 209 209 213 219 222 220 222 224 224 227 229 230 229 225 228 238 236 185 243 282 288 256 228 215 208 193 185 183 189 196 199 204 206 204
200 205 209 201 190 181 192 201 183 163 158 150 144 144 127 92 106 112 50 42 70 83 79 81 94 112 132 132 137 155 148 147 161 164 158 148 170 191 189 184 186 168 240 264 253 221 209 227 235 228 221 200 193 197 197 200 207 215 219 218 219 221 223 225 222 222 230 229 228 236 242 266 290 296 294 277 242 213 208 203 193 185 183 189 197 204 207 209
201 205 212 207 201 197 203 203 190 172 166 163 157 147 138 108 85 114 61 36 51 84 86 89 93 89 103 128 135 140 126 140 165 167 159 148 168 189 184 188 204 210 236 287 294 244 216 225 230 242 262 268 196 180 179 185 196 206 214 216 219 222 223 226 228 227 228 230 234 234 232 251 275 282 285 281 261 223 210 208 201 191 183 182 189 199 205 210
201 204 203 198 199 204 209 205 192 184 183 180 173 156 146 131 68 55 78 53 55 78 82 89 98 85 92 143 158 154 111 121 144 155 161 159 167 199 198 196 235 234 223 249 268 217 201 216 217 246 269 269 258 177 173 178 186 196 209 213 216 221 220 223 231 232 228 233 238 232 223 233 256 268 275 283 285 254 217 209 206 197 189 185 186 192 200 207
206 212 206 197 191 191 200 203 193 192 195 187 181 178 168 155 113 85 68 32 19 36 83 72 83 124 138 134 168 166 129 127 143 148 152 152 155 189 235 259 281 287 241 214 207 194 200 211 189 87 61 216 230 193 173 175 181 183 194 202 207 214 216 221 229 231 227 233 239 232 219 226 246 263 274 283 289 277 229 212 207 200 195 193 193 197 201 204
207 212 207 202 198 189 196 203 196 192 192 180 174 185 175 156 141 125 65 20 0 340 171 151 106 139 144 129 132 149 150 147 152 162 161 151 152 155 179 290 317 345 336 224 212 198 193 201 172 121 87 82 127 176 165 160 161 146 131 162 192 205 212 218 225 227 227 234 243 253 247 234 245 264 275 277 279 273 233 215 209 202 199 198 200 204 205 205
209 210 206 204 204 197 194 198 193 189 189 181 176 186 178 156 139 127 3 17 23 53 127 128 127 121 114 112 133 160 183 172 158 173 169 145 134 146 124 322 304 342 355 260 213 190 186 206 176 141 132 92 93 137 152 145 142 117 105 167 185 187 206 215 218 225 231 235 239 243 243 238 244 255 264 265 268 263 234 217 208 201 198 199 201 202 200 201
210 211 207 202 204 204 201 197 191 187 188 187 185 174 166 164 151 92 359 20 58 99 124 122 123 113 98 104 136 167 194 185 171 177 172 159 156 160 168 287 284 331 355 299 217 193 190 207 187 170 183 133 94 121 144 145 153 122 100 196 190 172 185 205 214 219 220 226 233 232 230 233 240 245 249 254 259 257 239 215 202 196 193 195 198 198 194 195
211 210 209 206 205 205 203 197 191 192 194 194 192 179 165 175 180 116 48 28 43 84 159 152 139 126 107 117 154 166 184 193 187 190 192 198 217 222 243 280 285 293 317 289 239 210 197 199 202 210 209 180 89 91 148 177 187 165 31 216 187 188 194 192 214 219 209 207 226 227 220 227 241 247 248 249 247 242 229 208 195 191 191 195 196 194 190 192
Height
3150 3149 3149 3148 3148 3147 3147 3146 3146 3146 3146 3146 3146 3146 3146 3146 3146 3146 3147 3147 3147 3147 3148 3149 3149 3150 3151 3152 3152 3153 3154 3155 3156 3157 3158 3158 3158 3159 3160 3161 3163 3165 3167 3168 3170 3172 3173 3174 3175 3175 3175 3175 3175 3175 3175 3174 3173 3173 3174 3175 3176 3176 3177 3178 3179 3180 3182 3183 3184 3186 3188 3190 3191 3191 3193 3194 3196 3197 3199 3200 3201 3202 3203 3204 3207 3209 3211 3211
3150 3149 3148 3148 3147 3147 3146 3145 3145 3145 3145 3145 3145 3145 3145 3145 3145 3145 3145 3145 3145 3146 3146 3147 3148 3148 3149 3150 3151 3152 3153 3153 3154 3155 3156 3156 3157 3158 3159 3161 3163 3165 3166 3168 3170 3171 3173 3174 3175 3175 3175 3175 3175 3175 3175 3174 3174 3174 3174 3176 3176 3176 3176 3177 3178 3180 3181 3183 3185 3186 3188 3190 3191 3192 3194 3195 3196 3198 3199 3200 3201 3202 3203 3205 3207 3210 3211 3212
3149 3148 3148 3147 3147 3146 3145 3145 3144 3144 3143 3143 3143 3143 3144 3144 3144 3144 3144 3144 3144 3144 3145 3145 3146 3147 3148 3149 3150 3151 3151 3152 3153 3154 3154 3154 3156 3157 3159 3161 3163 3164 3165 3167 3169 3171 3172 3174 3174 3175 3175 3176 3175 3175 3175 3175 3174 3174 3174 3175 3176 3175 3175 3177 3178 3179 3182 3184 3186 3187 3189 3190 3192 3193 3195 3196 3197 3198 3200 3201 3202 3203 3204 3205 3208 3210 3212 3213
3148 3148 3147 3146 3146 3145 3145 3144 3143 3143 3142 3142 3142 3142 3142 3142 3143 3143 3143 3143 3143 3143 3143 3144 3144 3145 3146 3147 3148 3149 3150 3151 3152 3152 3152 3153 3155 3157 3158 3160 3162 3163 3164 3166 3167 3169 3171 3172 3173 3174 3175 3176 3175 3175 3175 3175 3174 3174 3174 3174 3175 3175 3175 3177 3178 3179 3181 3184 3186 3187 3189 3191 3192 3194 3195 3197 3198 3199 3200 3202 3203 3204 3205 3206 3208 3211 3213 3214
3147 3147 3146 3146 3145 3144 3143 3143 3142 3142 3141 3141 3140 3140 3141 3141 3141 3141 3141 3141 3141 3142 3142 3143 3143 3144 3144 3145 3147 3148 3150 3151 3150 3150 3151 3152 3154 3156 3158 3160 3161 3162 3163 3165 3166 3168 3170 3171 3172 3173 3174 3175 3175 3175 3175 3175 3174 3174 3174 3174 3174 3175 3175 3176 3178 3179 3182 3184 3187 3188 3189 3191 3193 3194 3196 3197 3199 3200 3200 3202 3204 3205 3206 3208 3209 3211 3213 3215
3147 3146 3146 3145 3144 3143 3142 3142 3141 3141 3140 3140 3139 3139 3139 3139 3139 3140 3140 3140 3140 3140 3141 3141 3142 3142 3143 3144 3145 3146 3148 3148 3147 3148 3150 3151 3153 3155 3157 3158 3159 3161 3162 3163 3165 3167 3169 3171 3172 3173 3174 3175 3175 3175 3175 3174 3174 3174 3174 3174 3174 3174 3175 3176 3178 3180 3182 3184 3187 3188 3190 3191 3193 3195 3196 3197 3199 3200 3201 3202 3204 3205 3206 3209 3211 3212 3214 3215
3146 3145 3145 3144 3143 3143 3142 3141 3140 3139 3139 3139 3138 3138 3138 3138 3138 3138 3138 3138 3138 3139 3139 3140 3140 3141 3141 3142 3143 3144 3146 3146 3146 3147 3148 3150 3152 3154 3156 3157 3158 3160 3161 3163 3165 3167 3169 3170 3172 3173 3174 3175 3175 3175 3175 3174 3174 3174 3174 3173 3173 3174 3176 3177 3178 3180 3183 3185 3187 3189 3190 3192 3193 3195 3196 3197 3198 3200 3201 3203 3204 3205 3207 3209 3211 3213 3215 3216
3145 3145 3144 3143 3142 3142 3141 3140 3139 3139 3138 3138 3137 3137 3137 3136 3136 3136 3136 3136 3137 3137 3138 3138 3139 3139 3140 3141 3142 3143 3144 3144 3145 3146 3147 3149 3151 3153 3154 3155 3157 3159 3161 3163 3165 3167 3169 3170 3172 3173 3175 3175 3175 3175 3174 3174 3174 3174 3174 3174 3173 3174 3176 3177 3178 3180 3183 3185 3187 3189 3191 3192 3194 3195 3196 3198 3199 3200 3201 3203 3205 3206 3208 3210 3212 3214 3216 3217
3145 3144 3143 3142 3141 3140 3140 3139 3138 3138 3137 3137 3136 3136 3135 3135 3135 3135 3135 3135 3135 3136 3136 3137 3137 3138 3139 3139 3141 3142 3142 3143 3144 3145 3146 3148 3150 3152 3153 3155 3157 3158 3160 3162 3164 3166 3168 3170 3172 3173 3174 3175 3175 3175 3174 3174 3174 3174 3174 3174 3174 3174 3176 3177 3178 3180 3182 3185 3187 3189 3191 3192 3194 3195 3196 3198 3199 3200 3202 3203 3205 3207 3208 3210 3212 3214 3216 3217
3144 3143 3142 3141 3141 3140 3139 3138 3137 3137 3136 3136 3135 3134 3134 3134 3133 3133 3133 3133 3134 3134 3135 3135 3136 3136 3137 3138 3140 3141 3140 3142 3143 3144 3145 3146 3148 3150 3152 3154 3156 3158 3160 3161 3163 3165 3167 3170 3171 3172 3173 3174 3174 3175 3174 3174 3173 3173 3173 3173 3174 3175 3177 3178 3178 3180 3182 3185 3187 3189 3191 3193 3194 3195 3196 3198 3199 3201 3202 3203 3205 3207 3209 3211 3213 3215 3217 3218
3144 3143 3142 3141 3140 3139 3138 3137 3136 3136 3135 3134 3134 3133 3133 3132 3132 3132 3132 3132 3132 3133 3133 3134 3134 3135 3135 3136 3138 3138 3139 3140 3142 3143 3144 3145 3147 3149 3151 3153 3155 3158 3159 3161 3163 3165 3167 3169 3170 3172 3174 3174 3174 3175 3174 3174 3173 3173 3173 3174 3174 3175 3177 3178 3178 3179 3181 3184 3186 3189 3191 3193 3194 3196 3197 3198 3199 3201 3203 3204 3205 3207 3210 3211 3213 3215 3217 3218
3143 3142 3141 3140 3139 3138 3137 3136 3135 3135 3134 3133 3133 3132 3132 3131 3131 3130 3130 3130 3131 3131 3132 3132 3133 3133 3134 3135 3135 3136 3138 3139 3141 3142 3143 3144 3146 3148 3150 3152 3154 3156 3159 3160 3162 3164 3166 3167 3169 3171 3172 3173 3175 3175 3174 3173 3173 3173 3174 3174 3174 3174 3177 3178 3178 3179 3181 3183 3185 3188 3191 3193 3194 3195 3196 3198 3200 3201 3203 3204 3206 3208 3210 3212 3213 3215 3217 3218
3142 3141 3140 3140 3139 3138 3137 3136 3135 3134 3133 3132 3132 3131 3131 3130 3130 3129 3129 3129 3129 3130 3130 3131 3131 3132 3133 3133 3134 3135 3137 3138 3140 3141 3142 3143 3145 3146 3148 3151 3153 3155 3157 3159 3161 3163 3165 3167 3168 3170 3171 3172 3174 3174 3174 3173 3173 3173 3174 3175 3175 3175 3177 3178 3178 3179 3181 3182 3184 3187 3190 3192 3193 3195 3196 3198 3200 3201 3203 3205 3206 3208 3210 3212 3214 3215 3217 3219
3142 3141 3140 3139 3138 3137 3136 3135 3134 3133 3132 3131 3131 3130 3130 3129 3129 3128 3128 3128 3128 3129 3129 3129 3130 3131 3131 3132 3133 3134 3135 3137 3139 3140 3141 3143 3144 3146 3147 3150 3152 3154 3155 3157 3159 3161 3164 3166 3168 3169 3170 3171 3172 3173 3173 3173 3173 3174 3174 3174 3175 3175 3177 3178 3178 3180 3180 3181 3184 3186 3190 3192 3193 3194 3196 3198 3200 3201 3203 3205 3206 3208 3210 3212 3214 3216 3217 3219
3141 3140 3139 3138 3138 3137 3136 3135 3134 3133 3132 3131 3130 3129 3129 3128 3128 3127 3127 3127 3127 3128 3128 3128 3129 3130 3131 3131 3132 3133 3134 3136 3138 3139 3140 3142 3144 3145 3147 3149 3151 3152 3154 3155 3157 3160 3163 3166 3167 3169 3170 3171 3171 3173 3173 3173 3173 3173 3172 3173 3174 3175 3176 3177 3179 3181 3181 3182 3184 3186 3189 3193 3194 3194 3196 3198 3200 3202 3203 3205 3207 3208 3210 3212 3214 3216 3217 3219
3140 3139 3138 3138 3137 3136 3135 3134 3133 3132 3131 3130 3130 3129 3128 3128 3127 3127 3126 3126 3127 3127 3127 3128 3128 3129 3130 3131 3131 3132 3133 3135 3136 3138 3140 3141 3143 3145 3147 3149 3150 3152 3154 3155 3157 3159 3161 3164 3166 3167 3169 3171 3172 3173 3174 3174 3173 3173 3171 3171 3173 3174 3175 3176 3178 3180 3182 3182 3184 3186 3188 3192 3193 3194 3196 3198 3199 3202 3203 3205 3207 3208 3210 3212 3214 3216 3217 3219
3140 3139 3138 3137 3136 3136 3135 3133 3132 3131 3130 3130 3129 3128 3128 3127 3126 3126 3126 3126 3126 3126 3126 3127 3127 3129 3129 3130 3131 3131 3132 3134 3136 3138 3140 3141 3143 3144 3147 3149 3150 3152 3154 3156 3158 3160 3161 3164 3165 3167 3168 3170 3172 3173 3173 3173 3172 3171 3171 3170 3172 3173 3173 3175 3178 3179 3181 3182 3183 3185 3187 3189 3191 3193 3195 3197 3199 3201 3203 3205 3207 3208 3210 3212 3214 3216 3217 3219
3139 3138 3137 3136 3136 3135 3134 3133 3132 3131 3130 3129 3129 3128 3127 3127 3126 3126 3125 3125 3125 3126 3126 3127 3127 3129 3130 3129 3130 3131 3131 3133 3135 3138 3140 3142 3143 3144 3146 3149 3151 3153 3155 3157 3159 3160 3162 3164 3166 3168 3169 3169 3171 3172 3172 3171 3171 3171 3170 3170 3171 3173 3173 3175 3177 3178 3180 3181 3182 3184 3185 3187 3190 3192 3194 3196 3199 3201 3203 3205 3207 3208 3210 3212 3214 3215 3217 3219
3139 3138 3137 3136 3135 3134 3133 3132 3131 3130 3130 3129 3128 3128 3127 3126 3126 3126 3125 3125 3125 3126 3127 3127 3127 3128 3129 3129 3129 3130 3132 3133 3135 3138 3140 3142 3143 3145 3146 3148 3151 3153 3156 3157 3159 3160 3162 3164 3166 3168 3169 3169 3170 3171 3171 3172 3171 3170 3170 3169 3170 3172 3174 3175 3177 3178 3180 3181 3182 3183 3186 3187 3188 3191 3193 3195 3198 3200 3203 3205 3206 3208 3210 3212 3213 3215 3217 3219
3138 3137 3136 3135 3135 3134 3133 3132 3131 3130 3130 3129 3128 3128 3127 3127 3127 3127 3125 3124 3125 3125 3126 3126 3126 3127 3128 3129 3129 3131 3133 3134 3136 3138 3139 3142 3144 3145 3147 3148 3150 3153 3156 3158 3159 3160 3162 3164 3165 3166 3168 3169 3170 3171 3172 3172 3171 3171 3171 3170 3170 3172 3174 3176 3177 3178 3179 3181 3181 3183 3185 3185 3186 3189 3192 3194 3197 3199 3202 3204 3206 3208 3209 3211 3213 3215 3217 3219
3137 3137 3136 3135 3134 3133 3132 3132 3131 3130 3130 3129 3128 3128 3127 3127 3127 3127 3125 3124 3125 3125 3125 3126 3126 3127 3128 3129 3130 3131 3133 3135 3136 3137 3139 3141 3144 3146 3147 3148 3150 3153 3156 3159 3160 3161 3163 3164 3164 3166 3168 3168 3169 3170 3171 3171 3171 3171 3171 3171 3172 3173 3175 3176 3176 3177 3179 3180 3181 3182 3183 3184 3186 3188 3191 3193 3196 3198 3201 3203 3205 3207 3209 3211 3213 3215 3217 3218
3137 3136 3136 3135 3134 3133 3132 3132 3131 3130 3129 3129 3128 3128 3128 3127 3127 3126 3125 3125 3125 3125 3125 3126 3126 3127 3128 3129 3131 3132 3134 3135 3136 3137 3139 3141 3143 3146 3147 3148 3151 3153 3156 3158 3159 3160 3162 3163 3164 3166 3166 3166 3168 3169 3170 3171 3171 3171 3171 3172 3172 3173 3174 3175 3175 3176 3178 3179 3181 3182 3184 3185 3187 3188 3190 3193 3195 3198 3201 3203 3205 3207 3209 3210 3212 3214 3216 3218
3136 3136 3135 3134 3133 3133 3132 3132 3131 3130 3130 3129 3129 3128 3128 3127 3126 3126 3125 3126 3127 3126 3126 3127 3127 3128 3129 3130 3132 3133 3135 3136 3136 3137 3139 3141 3143 3145 3146 3149 3152 3154 3155 3157 3158 3160 3162 3162 3164 3165 3164 3166 3168 3168 3169 3171 3171 3171 3171 3171 3171 3173 3174 3174 3175 3176 3178 3179 3180 3182 3184 3187 3188 3188 3189 3192 3195 3198 3200 3203 3205 3207 3209 3211 3212 3214 3216 3217
3135 3135 3135 3134 3133 3133 3132 3132 3131 3131 3130 3130 3129 3129 3128 3127 3127 3126 3126 3127 3129 3128 3128 3128 3128 3129 3130 3131 3132 3134 3137 3138 3137 3138 3139 3141 3143 3144 3147 3149 3152 3154 3154 3156 3159 3161 3161 3162 3163 3164 3164 3166 3168 3169 3170 3171 3171 3171 3171 3171 3171 3173 3174 3174 3175 3176 3178 3178 3179 3181 3184 3186 3187 3188 3188 3190 3193 3197 3199 3201 3204 3206 3208 3210 3212 3214 3215 3217
3135 3134 3134 3134 3133 3133 3132 3132 3132 3131 3131 3130 3130 3129 3128 3128 3127 3127 3127 3127 3130 3130 3130 3130 3130 3131 3131 3132 3133 3135 3137 3138 3138 3139 3139 3140 3142 3145 3147 3149 3152 3154 3155 3157 3159 3161 3161 3160 3162 3164 3164 3166 3168 3169 3170 3170 3171 3171 3171 3171 3171 3173 3173 3174 3175 3177 3178 3178 3178 3180 3182 3184 3186 3187 3188 3189 3191 3195 3198 3200 3203 3205 3207 3208 3210 3212 3214 3216
3135 3134 3134 3134 3133 3133 3133 3132 3132 3132 3131 3131 3130 3129 3129 3128 3128 3128 3127 3128 3130 3131 3131 3131 3132 3132 3132 3133 3134 3135 3138 3139 3139 3139 3139 3140 3142 3145 3147 3149 3151 3154 3155 3157 3159 3161 3160 3159 3162 3164 3165 3167 3168 3169 3170 3170 3171 3170 3170 3171 3172 3173 3173 3174 3175 3177 3177 3178 3178 3179 3181 3183 3184 3186 3187 3189 3190 3193 3196 3199 3201 3204 3205 3207 3209 3211 3213 3215
3134 3134 3134 3134 3134 3133 3133 3133 3133 3132 3132 3131 3131 3130 3129 3129 3129 3129 3127 3127 3129 3131 3132 3132 3132 3132 3132 3133 3134 3136 3137 3138 3138 3139 3140 3141 3143 3145 3147 3149 3151 3152 3154 3157 3159 3159 3159 3159 3161 3164 3165 3167 3168 3169 3170 3170 3170 3170 3170 3172 3172 3173 3174 3174 3175 3176 3177 3177 3177 3179 3180 3182 3183 3184 3186 3188 3189 3192 3194 3197 3199 3202 3204 3206 3208 3210 3212 3214
3134 3134 3134 3134 3134 3134 3134 3133 3133 3133 3132 3132 3131 3130 3130 3130 3130 3129 3127 3127 3130 3132 3133 3133 3132 3133 3133 3133 3135 3136 3137 3137 3139 3140 3140 3141 3143 3145 3148 3150 3151 3152 3153 3156 3157 3157 3158 3160 3161 3163 3165 3167 3168 3169 3169 3169 3171 3170 3170 3172 3173 3174 3174 3175 3175 3176 3177 3176 3176 3178 3179 3181 3182 3182 3185 3187 3189 3191 3193 3195 3197 3200 3203 3205 3207 3209 3211 3213
3134 3134 3134 3134 3134 3134 3134 3134 3133 3133 3132 3132 3131 3131 3131 3130 3130 3130 3127 3128 3132 3133 3133 3133 3133 3134 3134 3135 3136 3137 3137 3139 3140 3140 3141 3142 3143 3145 3148 3150 3151 3152 3153 3155 3156 3156 3158 3160 3161 3163 3165 3166 3168 3169 3168 3169 3171 3170 3170 3172 3173 3174 3174 3175 3176 3176 3177 3175 3174 3177 3178 3179 3180 3180 3182 3185 3187 3189 3191 3194 3196 3199 3201 3204 3206 3208 3210 3212
3134 3134 3134 3134 3134 3134 3134 3134 3133 3133 3133 3132 3132 3131 3131 3131 3131 3128 3127 3130 3133 3134 3133 3134 3134 3135 3135 3136 3137 3138 3139 3140 3140 3140 3142 3143 3144 3145 3147 3149 3151 3153 3154 3155 3156 3156 3156 3158 3159 3161 3164 3166 3167 3166 3166 3168 3170 3170 3171 3172 3173 3174 3175 3175 3176 3177 3177 3175 3172 3174 3176 3176 3177 3177 3179 3181 3184 3187 3190 3192 3195 3197 3200 3202 3205 3207 3208 3210
3133 3134 3134 3134 3135 3135 3134 3134 3134 3133 3133 3133 3132 3132 3131 3132 3131 3128 3129 3133 3134 3134 3134 3135 3135 3136 3136 3137 3137 3138 3140 3140 3141 3141 3143 3144 3145 3146 3147 3149 3151 3153 3154 3155 3155 3156 3156 3157 3159 3160 3161 3163 3164 3164 3165 3167 3169 3170 3172 3172 3172 3174 3175 3175 3176 3176 3177 3175 3172 3173 3175 3176 3175 3175 3178 3180 3182 3186 3188 3191 3193 3195 3198 3201 3203 3206 3207 3209
3133 3133 3134 3135 3135 3135 3135 3134 3134 3134 3133 3133 3133 3133 3132 3132 3131 3131 3133 3134 3134 3134 3135 3135 3136 3136 3137 3138 3138 3139 3140 3141 3141 3142 3143 3144 3145 3146 3147 3148 3150 3151 3152 3154 3154 3155 3157 3157 3158 3159 3160 3161 3163 3165 3165 3167 3169 3170 3172 3172 3171 3172 3173 3173 3173 3173 3174 3173 3172 3172 3174 3176 3175 3175 3176 3178 3180 3184 3187 3190 3192 3194 3197 3199 3202 3204 3206 3208
3133 3133 3134 3135 3135 3135 3135 3135 3135 3134 3134 3134 3133 3134 3133 3131 3132 3134 3135 3134 3134 3135 3135 3135 3136 3136 3137 3138 3138 3139 3140 3140 3141 3142 3143 3144 3145 3146 3147 3147 3149 3150 3149 3151 3153 3154 3155 3157 3157 3158 3159 3159 3162 3164 3164 3166 3168 3168 3170 3171 3169 3169 3171 3171 3169 3169 3170 3171 3172 3173 3174 3175 3175 3175 3175 3176 3178 3182 3186 3189 3191 3194 3197 3198 3201 3203 3205 3206
3133 3134 3134 3135 3135 3135 3135 3135 3135 3135 3135 3135 3134 3134 3133 3133 3134 3135 3135 3135 3135 3134 3135 3135 3136 3137 3137 3138 3138 3139 3139 3140 3141 3142 3143 3144 3144 3146 3147 3148 3149 3150 3149 3150 3151 3151 3151 3153 3154 3155 3157 3157 3159 3162 3163 3165 3166 3167 3169 3170 3168 3167 3168 3169 3168 3166 3168 3171 3172 3173 3174 3173 3173 3174 3175 3176 3178 3182 3185 3187 3189 3192 3195 3197 3200 3202 3203 3205
3133 3134 3135 3135 3135 3135 3135 3135 3136 3135 3135 3135 3135 3135 3134 3135 3136 3136 3136 3136 3135 3135 3136 3136 3137 3137 3137 3138 3139 3139 3139 3140 3141 3142 3143 3143 3144 3145 3146 3148 3148 3149 3150 3150 3150 3150 3150 3150 3150 3152 3155 3156 3158 3161 3163 3164 3165 3166 3168 3168 3167 3167 3167 3168 3167 3166 3168 3172 3172 3172 3172 3172 3172 3174 3175 3176 3179 3182 3184 3185 3187 3190 3193 3195 3198 3200 3202 3204
3134 3134 3135 3135 3135 3135 3136 3136 3136 3136 3136 3136 3136 3136 3136 3137 3137 3137 3137 3136 3136 3136 3136 3136 3137 3136 3136 3138 3139 3139 3139 3139 3140 3142 3143 3143 3144 3145 3146 3148 3148 3149 3149 3149 3149 3150 3150 3149 3150 3152 3154 3156 3158 3160 3161 3162 3163 3164 3165 3165 3166 3167 3167 3166 3166 3167 3168 3169 3170 3170 3171 3171 3173 3174 3175 3176 3177 3180 3181 3182 3184 3187 3190 3193 3195 3198 3201 3203
3134 3135 3135 3136 3136 3136 3136 3136 3136 3136 3137 3137 3137 3137 3138 3138 3137 3137 3137 3136 3136 3136 3136 3135 3135 3135 3135 3136 3138 3139 3139 3140 3140 3142 3143 3144 3144 3146 3147 3148 3148 3148 3149 3149 3149 3150 3149 3148 3149 3151 3153 3155 3157 3160 3161 3161 3162 3163 3163 3164 3166 3167 3167 3166 3166 3167 3167 3166 3166 3169 3169 3170 3172 3173 3173 3174 3175 3177 3178 3179 3181 3184 3187 3190 3193 3196 3199 3202
3134 3135 3136 3136 3136 3136 3136 3136 3137 3137 3137 3138 3138 3138 3138 3139 3138 3137 3137 3136 3136 3136 3136 3135 3135 3136 3136 3136 3137 3139 3139 3140 3140 3141 3142 3143 3144 3145 3147 3147 3147 3147 3148 3149 3150 3150 3149 3147 3148 3150 3152 3154 3156 3158 3159 3160 3161 3162 3163 3164 3166 3166 3165 3165 3165 3165 3166 3164 3164 3167 3168 3168 3169 3171 3171 3172 3173 3174 3175 3176 3178 3180 3183 3187 3191 3194 3197 3200
3134 3135 3136 3136 3136 3136 3136 3136 3137 3137 3138 3139 3139 3139 3139 3139 3139 3138 3137 3136 3136 3136 3136 3136 3136 3136 3136 3136 3137 3139 3139 3139 3140 3141 3141 3143 3144 3145 3146 3146 3147 3147 3147 3148 3150 3150 3150 3148 3146 3149 3152 3153 3155 3156 3156 3157 3159 3161 3163 3163 3164 3164 3163 3164 3164 3164 3165 3163 3163 3166 3168 3167 3167 3169 3170 3170 3171 3172 3173 3174 3176 3178 3181 3185 3189 3193 3196 3199
3134 3136 3137 3136 3136 3136 3136 3137 3138 3139 3139 3139 3139 3139 3139 3139 3139 3138 3137 3137 3137 3137 3137 3136 3137 3137 3137 3137 3138 3139 3139 3139 3140 3141 3141 3142 3144 3145 3146 3146 3146 3146 3146 3147 3149 3149 3150 3148 3145 3147 3151 3151 3151 3152 3153 3155 3157 3159 3160 3161 3162 3163 3163 3163 3163 3164 3165 3164 3162 3163 3165 3165 3166 3168 3168 3169 3170 3170 3171 3172 3174 3176 3180 3184 3188 3191 3194 3197
3134 3137 3136 3135 3136 3136 3137 3138 3138 3139 3140 3139 3139 3139 3139 3139 3140 3139 3138 3138 3138 3137 3137 3137 3137 3137 3137 3138 3138 3139 3140 3140 3141 3142 3142 3143 3144 3145 3146 3145 3145 3146 3146 3147 3148 3149 3149 3148 3146 3147 3149 3149 3149 3150 3152 3154 3155 3157 3158 3159 3160 3161 3162 3162 3162 3163 3164 3164 3162 3162 3163 3165 3166 3167 3167 3168 3169 3169 3170 3171 3173 3175 3178 3182 3185 3189 3192 3196
3135 3137 3136 3135 3136 3136 3137 3139 3139 3139 3140 3139 3139 3139 3139 3139 3140 3140 3139 3139 3139 3138 3138 3137 3138 3138 3138 3138 3139 3139 3140 3141 3141 3142 3143 3143 3144 3144 3145 3145 3145 3145 3146 3148 3148 3148 3148 3148 3148 3146 3146 3147 3147 3149 3152 3153 3154 3156 3156 3157 3159 3159 3160 3160 3159 3161 3163 3164 3163 3164 3164 3165 3166 3167 3167 3167 3168 3169 3170 3171 3172 3174 3177 3180 3183 3187 3190 3194
3135 3136 3135 3135 3136 3136 3137 3139 3139 3139 3140 3139 3139 3139 3139 3140 3140 3140 3140 3140 3139 3139 3139 3138 3138 3138 3138 3139 3139 3139 3140 3141 3142 3142 3143 3143 3143 3144 3144 3145 3145 3145 3146 3147 3147 3147 3147 3147 3148 3146 3146 3147 3148 3149 3151 3152 3154 3155 3155 3155 3157 3157 3158 3158 3158 3161 3162 3162 3163 3163 3163 3164 3166 3166 3167 3167 3167 3169 3170 3171 3172 3174 3176 3179 3182 3185 3188 3192
3134 3134 3134 3135 3136 3136 3138 3138 3139 3139 3139 3139 3140 3140 3140 3140 3140 3140 3140 3140 3140 3140 3140 3139 3139 3139 3139 3139 3140 3140 3140 3141 3142 3142 3143 3143 3144 3144 3144 3145 3145 3145 3146 3147 3147 3146 3146 3147 3146 3145 3144 3146 3147 3148 3149 3151 3152 3152 3152 3153 3154 3155 3157 3158 3159 3162 3162 3161 3162 3162 3162 3164 3165 3166 3166 3166 3167 3168 3169 3170 3172 3173 3175 3177 3181 3184 3187 3190
3133 3134 3134 3135 3135 3136 3137 3137 3138 3139 3139 3139 3140 3140 3140 3140 3140 3140 3140 3140 3140 3140 3140 3140 3139 3139 3139 3139 3140 3141 3141 3141 3142 3142 3143 3144 3144 3144 3144 3144 3145 3145 3145 3145 3146 3146 3146 3146 3146 3143 3141 3141 3142 3143 3144 3147 3149 3150 3151 3152 3153 3155 3156 3157 3159 3161 3161 3161 3162 3163 3163 3164 3165 3166 3166 3166 3166 3167 3168 3169 3171 3173 3174 3176 3178 3182 3185 3188
3133 3134 3135 3135 3135 3136 3136 3136 3137 3139 3139 3139 3140 3140 3140 3141 3140 3140 3140 3140 3140 3140 3140 3140 3140 3140 3140 3140 3141 3141 3141 3142 3142 3143 3144 3144 3144 3144 3144 3144 3144 3145 3145 3145 3145 3145 3145 3145 3145 3144 3142 3141 3140 3141 3142 3145 3147 3149 3150 3151 3153 3154 3156 3157 3158 3158 3160 3162 3162 3163 3164 3165 3165 3165 3165 3165 3165 3166 3167 3168 3170 3172 3173 3175 3177 3180 3183 3186
3132 3133 3134 3134 3135 3136 3136 3136 3137 3138 3139 3139 3139 3140 3140 3141 3141 3140 3140 3140 3140 3140 3140 3140 3140 3141 3141 3141 3142 3142 3142 3142 3142 3143 3143 3144 3144 3144 3144 3144 3144 3144 3144 3145 3144 3144 3145 3145 3144 3144 3143 3142 3142 3142 3142 3145 3147 3149 3149 3151 3152 3153 3154 3156 3156 3156 3159 3161 3160 3161 3164 3165 3165 3165 3165 3165 3165 3165 3166 3167 3169 3171 3173 3175 3177 3179 3181 3183
3131 3132 3132 3133 3134 3135 3136 3136 3137 3137 3138 3139 3139 3140 3140 3141 3141 3141 3140 3140 3140 3140 3141 3141 3141 3141 3141 3142 3142 3142 3143 3143 3143 3143 3143 3144 3144 3144 3145 3145 3144 3144 3144 3144 3144 3144 3145 3145 3144 3144 3143 3142 3143 3143 3143 3145 3147 3148 3149 3150 3151 3152 3153 3155 3155 3156 3159 3160 3159 3160 3162 3163 3164 3164 3164 3164 3164 3164 3165 3167 3168 3170 3172 3174 3176 3178 3180 3181
3129 3130 3131 3132 3133 3134 3135 3135 3136 3137 3138 3139 3139 3139 3140 3140 3140 3140 3140 3141 3141 3140 3141 3142 3141 3141 3141 3141 3142 3143 3143 3143 3143 3143 3143 3144 3144 3145 3145 3145 3145 3145 3145 3144 3144 3144 3144 3145 3144 3144 3144 3143 3143 3143 3144 3145 3146 3147 3149 3149 3150 3151 3152 3154 3155 3156 3158 3159 3160 3160 3161 3162 3163 3163 3163 3163 3163 3164 3164 3165 3167 3169 3171 3173 3175 3176 3177 3178
3128 3129 3130 3131 3132 3133 3134 3135 3136 3137 3138 3138 3139 3139 3140 3140 3140 3140 3140 3141 3141 3140 3141 3142 3141 3141 3141 3142 3142 3143 3142 3143 3143 3143 3143 3144 3144 3145 3145 3145 3144 3145 3144 3144 3144 3143 3144 3145 3143 3143 3144 3144 3144 3144 3145 3146 3147 3147 3148 3148 3149 3151 3152 3153 3154 3156 3157 3158 3159 3160 3161 3161 3161 3162 3162 3163 3163 3163 3163 3164 3166 3168 3170 3171 3173 3174 3175 3176
3127 3128 3129 3130 3132 3132 3133 3134 3135 3137 3138 3138 3139 3139 3139 3140 3140 3140 3140 3140 3140 3141 3141 3141 3141 3141 3142 3142 3142 3142 3142 3142 3143 3143 3143 3144 3144 3144 3144 3144 3144 3144 3144 3144 3143 3143 3144 3144 3144 3143 3143 3143 3144 3145 3145 3146 3147 3147 3147 3147 3149 3150 3152 3153 3154 3154 3156 3157 3158 3159 3160 3160 3160 3161 3161 3161 3162 3162 3162 3163 3165 3167 3169 3170 3172 3173 3174 3175
3125 3127 3128 3129 3131 3132 3133 3134 3135 3136 3137 3137 3138 3138 3139 3139 3139 3140 3140 3139 3139 3140 3140 3140 3141 3142 3142 3142 3141 3141 3142 3142 3142 3143 3143 3143 3143 3144 3144 3144 3143 3143 3143 3143 3142 3143 3143 3143 3144 3144 3144 3144 3144 3145 3145 3145 3145 3147 3147 3147 3148 3149 3150 3152 3153 3153 3154 3156 3157 3158 3158 3159 3159 3159 3160 3160 3161 3161 3162 3163 3165 3166 3168 3169 3170 3172 3173 3174